Simultaneous Nadir Overpasses (SNOs) Predictions

Prediction of SNOs between LANDSAT-8 and METOP-B Satellite Orbit:

Table of predicted SNOs for the next 14.0 days since TLE Epoch: 3/15/2019
Index Date (LANDSAT-8) Time (LANDSAT-8) Lat,Lon (LANDSAT-8) SZA (LANDSAT-8 ) Date (METOP-B) Time (METOP-B) Lat,Lon (METOP-B) SZA (METOP-B ) Distance(km) Time Diff (sec)
1 03/16/2019 17:42:53 -81.09, 133.28 95.52 03/16/2019 17:42:06 -81.09, 133.44 95.52 2.69 47
2 03/16/2019 18:32:18 81.12, -58.64 84.53 03/16/2019 18:32:45 81.12, -58.49 84.56 2.56 27
3 03/19/2019 13:17:07 -81.09,-160.20 96.60 03/19/2019 13:16:30 -81.09,-160.18 96.62 0.28 37
4 03/19/2019 14:06:32 81.12, 7.86 83.45 03/19/2019 14:07:09 81.12, 7.88 83.47 0.51 37
5 03/22/2019 08:51:20 -81.10, -93.67 97.68 03/22/2019 08:50:53 -81.09, -93.81 97.71 2.50 27
6 03/22/2019 09:40:45 81.13, 74.36 82.37 03/22/2019 09:41:32 81.12, 74.25 82.37 2.25 47
7 03/25/2019 04:25:34 -81.11, -27.14 98.75 03/25/2019 04:25:16 -81.10, -27.06 98.75 1.41 18
8 03/25/2019 05:14:59 81.13, 140.87 81.30 03/25/2019 05:15:55 81.13, 140.98 81.33 1.86 56
9 03/27/2019 23:59:49 -81.09, 39.02 99.87 03/27/2019 23:59:41 -81.09, 38.92 99.88 1.73 8




NCC Satellite Simultaneous Nadir Overpasses (SNOs) Prediction Service
